Weather in Karmakla

Russia / Novosibirsk Oblast     54°57′51″N   78°24′23″E
temp.,
°C
wind,
m/s
gust,
m/s
humid.,
%
clouds,
%
prec.,
mm/h
press.,
hPa
HPBL,
m
18 august, thu
thu1801:00+9wnw5792100 0.4 1011443
04:00+8wnw4691100 0.8 1011482
07:00+8wnw4795100 1.2 1011415
10:00+9nw239375 0.9 1012321
13:00+11nnw237956 1.6 1012576
16:00+12n457691 1.9 1013522
19:00+11n81188100 2.9 1014503
22:00+9n7119560 1.2 1015383
19 august, fri
fri1901:00+9n6995100 1.3 1016404
04:00+10n6993100 0.0 1015454
07:00+9nnw61195100 1.1 1016499
10:00+9nnw5990100 0.8 1016392
13:00+13nw5668100 0.9 1016788
16:00+14nw6765100 0.4 1015862
19:00+12nnw588097 0.9 1016345
22:00+10nw589593 0.3 1017300
20 august, sat
sat2001:00+9nw359624 0.3 1017145
04:00+9nw349554 0.0 101897
07:00+9nw349596 0.0 101899
10:00+12n2381100 0.0 1019209
13:00+15ene236447 0.0 1020530
16:00+17nnw2354100 0.0 10191070
19:00+17n365788 0.0 1019229
22:00+13nnw33664 0.0 102023
21 august, sun
sun2101:00+14nnw336093 0.0 102035
04:00+13nnw3464100 0.0 102051
07:00+13nw3469100 0.0 102071
10:00+14nw4668100 0.0 1020230
13:00+18wnw465161 0.0 10191189
16:00+18nw5650100 0.0 10181240
19:00+13nnw5992100 0.3 1020309
22:00+12n4793100 0.6 1021251
22 august, mon
mon2201:00+11nnw359652 0.7 102285
04:00+9n35920 0.0 1022107
07:00+8nne46905 0.0 1023128
10:00+11ne34795 0.0 1025363
13:00+15ne346064 0.0 1026938
16:00+15ne455111 0.0 1026931
19:00+16ne4550100 0.0 1026907
22:00+12ene336897 0.0 102719